Year,Month,Day,Hour,Minute,Value (Times are PST for temperature in C)
2014,08,01,00,00,18.40
2014,08,01,00,01,18.40
2014,08,01,00,02,18.40
2014,08,01,00,03,18.30
2014,08,01,00,04,18.30
2014,08,01,00,05,18.30
2014,08,01,00,06,18.30
2014,08,01,00,07,18.20
2014,08,01,00,08,18.20
2014,08,01,00,09,18.20
2014,08,01,00,10,18.20
2014,08,01,00,11,18.20
2014,08,01,00,12,18.20
2014,08,01,00,13,18.20
2014,08,01,00,14,18.20
2014,08,01,00,15,18.20
2014,08,01,00,16,18.20
2014,08,01,00,17,18.20
2014,08,01,00,18,18.20
2014,08,01,00,19,18.10
2014,08,01,00,20,18.10
2014,08,01,00,21,18.10
2014,08,01,00,22,18.10
2014,08,01,00,23,18.10
2014,08,01,00,24,18.10
2014,08,01,00,25,18.10
2014,08,01,00,26,18.10
2014,08,01,00,27,18.10
2014,08,01,00,28,18.10
2014,08,01,00,29,18.10
2014,08,01,00,30,18.10
2014,08,01,00,31,18.10
2014,08,01,00,32,18.10
2014,08,01,00,33,18.00
2014,08,01,00,34,17.90
2014,08,01,00,35,17.90
2014,08,01,00,36,17.90
2014,08,01,00,37,17.90
2014,08,01,00,38,17.90
2014,08,01,00,39,17.90
2014,08,01,00,40,17.90
2014,08,01,00,41,17.90
2014,08,01,00,42,17.80
2014,08,01,00,43,17.80
2014,08,01,00,44,17.80
2014,08,01,00,45,17.70
2014,08,01,00,46,17.70
2014,08,01,00,47,17.60
2014,08,01,00,48,17.60
2014,08,01,00,49,17.50
2014,08,01,00,50,17.40
2014,08,01,00,51,17.30
2014,08,01,00,52,17.20
2014,08,01,00,53,17.10
2014,08,01,00,54,17.00
2014,08,01,00,55,16.90
2014,08,01,00,56,16.90
2014,08,01,00,57,16.80
2014,08,01,00,58,16.70
2014,08,01,00,59,16.70
2014,08,01,01,00,16.70
2014,08,01,01,01,16.60
2014,08,01,01,02,16.50
2014,08,01,01,03,16.40
2014,08,01,01,04,16.40
2014,08,01,01,05,16.40
2014,08,01,01,06,16.40
2014,08,01,01,07,16.40
2014,08,01,01,08,16.40
2014,08,01,01,09,16.40
2014,08,01,01,10,16.30
2014,08,01,01,11,16.30
2014,08,01,01,12,16.30
2014,08,01,01,13,16.20
2014,08,01,01,14,16.20
2014,08,01,01,15,16.20
2014,08,01,01,16,16.20
2014,08,01,01,17,16.20
2014,08,01,01,18,16.20
2014,08,01,01,19,16.20
2014,08,01,01,20,16.20
2014,08,01,01,21,16.20
2014,08,01,01,22,16.20
2014,08,01,01,23,16.20
2014,08,01,01,24,16.20
2014,08,01,01,25,16.20
2014,08,01,01,26,16.20
2014,08,01,01,27,16.20
2014,08,01,01,28,16.20
2014,08,01,01,29,16.20
2014,08,01,01,30,16.20
2014,08,01,01,31,16.20
2014,08,01,01,32,16.20
2014,08,01,01,33,16.20
2014,08,01,01,34,16.20
2014,08,01,01,35,16.20
2014,08,01,01,36,16.20
2014,08,01,01,37,16.20
2014,08,01,01,38,16.20
2014,08,01,01,39,16.20
2014,08,01,01,40,16.20
2014,08,01,01,41,16.20
2014,08,01,01,42,16.20
2014,08,01,01,43,16.20
2014,08,01,01,44,16.20
2014,08,01,01,45,16.20
2014,08,01,01,46,16.20
2014,08,01,01,47,16.20
2014,08,01,01,48,16.20
2014,08,01,01,49,16.20
2014,08,01,01,50,16.20
2014,08,01,01,51,16.20
2014,08,01,01,52,16.20
2014,08,01,01,53,16.20
2014,08,01,01,54,16.20
2014,08,01,01,55,16.20
2014,08,01,01,56,16.20
2014,08,01,01,57,16.20
2014,08,01,01,58,16.20
2014,08,01,01,59,16.20
2014,08,01,02,00,16.20
2014,08,01,02,01,16.20
2014,08,01,02,02,16.20
2014,08,01,02,03,16.20
2014,08,01,02,04,16.20
2014,08,01,02,05,16.20
2014,08,01,02,06,16.20
2014,08,01,02,07,16.20
2014,08,01,02,08,16.20
2014,08,01,02,09,16.10
2014,08,01,02,10,16.10
2014,08,01,02,11,16.10
2014,08,01,02,12,16.10
2014,08,01,02,13,16.10
2014,08,01,02,14,16.10
2014,08,01,02,15,16.10
2014,08,01,02,16,16.10
2014,08,01,02,17,16.10
2014,08,01,02,18,16.10
2014,08,01,02,19,16.10
2014,08,01,02,20,16.10
2014,08,01,02,21,16.10
2014,08,01,02,22,16.10
2014,08,01,02,23,16.10
2014,08,01,02,24,16.10
2014,08,01,02,25,16.10
2014,08,01,02,26,16.10
2014,08,01,02,27,16.10
2014,08,01,02,28,16.10
2014,08,01,02,29,16.10
2014,08,01,02,30,16.10
2014,08,01,02,31,16.10
2014,08,01,02,32,16.10
2014,08,01,02,33,16.10
2014,08,01,02,34,16.10
2014,08,01,02,35,16.10
2014,08,01,02,36,16.10
2014,08,01,02,37,16.10
2014,08,01,02,38,16.10
2014,08,01,02,39,16.10
2014,08,01,02,40,16.10
2014,08,01,02,41,16.10
2014,08,01,02,42,16.10
2014,08,01,02,43,16.10
2014,08,01,02,44,16.10
2014,08,01,02,45,16.10
2014,08,01,02,46,16.10
2014,08,01,02,47,16.10
2014,08,01,02,48,16.10
2014,08,01,02,49,16.10
2014,08,01,02,50,16.10
2014,08,01,02,51,16.10
2014,08,01,02,52,16.10
2014,08,01,02,53,16.10
2014,08,01,02,54,16.10
2014,08,01,02,55,16.10
2014,08,01,02,56,16.10
2014,08,01,02,57,16.10
2014,08,01,02,58,16.00
2014,08,01,02,59,15.90
2014,08,01,03,00,15.90
2014,08,01,03,01,15.90
2014,08,01,03,02,15.90
2014,08,01,03,03,15.90
2014,08,01,03,04,15.90
2014,08,01,03,05,16.00
2014,08,01,03,06,16.10
2014,08,01,03,07,16.10
2014,08,01,03,08,16.10
2014,08,01,03,09,16.10
2014,08,01,03,10,16.10
2014,08,01,03,11,16.10
2014,08,01,03,12,16.10
2014,08,01,03,13,16.10
2014,08,01,03,14,16.00
2014,08,01,03,15,15.90
2014,08,01,03,16,15.90
2014,08,01,03,17,15.90
2014,08,01,03,18,15.90
2014,08,01,03,19,15.90
2014,08,01,03,20,15.80
2014,08,01,03,21,15.80
2014,08,01,03,22,15.80
2014,08,01,03,23,15.80
2014,08,01,03,24,15.80
2014,08,01,03,25,15.80
2014,08,01,03,26,15.80
2014,08,01,03,27,15.80
2014,08,01,03,28,15.70
2014,08,01,03,29,15.70
2014,08,01,03,30,15.60
2014,08,01,03,31,15.60
2014,08,01,03,32,15.60
2014,08,01,03,33,15.50
2014,08,01,03,34,15.50
2014,08,01,03,35,15.50
2014,08,01,03,36,15.40
2014,08,01,03,37,15.40
2014,08,01,03,38,15.40
2014,08,01,03,39,15.40
2014,08,01,03,40,15.40
2014,08,01,03,41,15.40
2014,08,01,03,42,15.40
2014,08,01,03,43,15.40
2014,08,01,03,44,15.40
2014,08,01,03,45,15.40
2014,08,01,03,46,15.40
2014,08,01,03,47,15.40
2014,08,01,03,48,15.40
2014,08,01,03,49,15.40
2014,08,01,03,50,15.40
2014,08,01,03,51,15.40
2014,08,01,03,52,15.40
2014,08,01,03,53,15.40
2014,08,01,03,54,15.40
2014,08,01,03,55,15.30
2014,08,01,03,56,15.30
2014,08,01,03,57,15.30
2014,08,01,03,58,15.30
2014,08,01,03,59,15.30
2014,08,01,04,00,15.30
2014,08,01,04,01,15.30
2014,08,01,04,02,15.30
2014,08,01,04,03,15.30
2014,08,01,04,04,15.30
2014,08,01,04,05,15.30
2014,08,01,04,06,15.30
2014,08,01,04,07,15.20
2014,08,01,04,08,15.20
2014,08,01,04,09,15.20
2014,08,01,04,10,15.20
2014,08,01,04,11,15.20
2014,08,01,04,12,15.20
2014,08,01,04,13,15.20
2014,08,01,04,14,15.10
2014,08,01,04,15,15.10
2014,08,01,04,16,15.10
2014,08,01,04,17,15.10
2014,08,01,04,18,15.10
2014,08,01,04,19,15.10
2014,08,01,04,20,15.10
2014,08,01,04,21,15.10
2014,08,01,04,22,15.10
2014,08,01,04,23,15.10
2014,08,01,04,24,15.10
2014,08,01,04,25,15.10
2014,08,01,04,26,15.10
2014,08,01,04,27,15.10
2014,08,01,04,28,15.00
2014,08,01,04,29,15.00
2014,08,01,04,30,15.00
2014,08,01,04,31,15.00
2014,08,01,04,32,15.00
2014,08,01,04,33,15.00
2014,08,01,04,34,15.00
2014,08,01,04,35,15.00
2014,08,01,04,36,15.00
2014,08,01,04,37,15.00
2014,08,01,04,38,15.00
2014,08,01,04,39,15.00
2014,08,01,04,40,14.90
2014,08,01,04,41,14.90
2014,08,01,04,42,14.90
2014,08,01,04,43,14.90
2014,08,01,04,44,14.90
2014,08,01,04,45,14.90
2014,08,01,04,46,14.80
2014,08,01,04,47,14.80
2014,08,01,04,48,14.80
2014,08,01,04,49,14.80
2014,08,01,04,50,14.80
2014,08,01,04,51,14.80
2014,08,01,04,52,14.80
2014,08,01,04,53,14.80
2014,08,01,04,54,14.80
2014,08,01,04,55,14.80
2014,08,01,04,56,14.80
2014,08,01,04,57,14.80
2014,08,01,04,58,14.80
2014,08,01,04,59,14.80
2014,08,01,05,00,14.80
2014,08,01,05,01,14.70
2014,08,01,05,02,14.70
2014,08,01,05,03,14.70
2014,08,01,05,04,14.70
2014,08,01,05,05,14.70
2014,08,01,05,06,14.70
2014,08,01,05,07,14.70
2014,08,01,05,08,14.70
2014,08,01,05,09,14.70
2014,08,01,05,10,14.70
2014,08,01,05,11,14.60
2014,08,01,05,12,14.60
2014,08,01,05,13,14.60
2014,08,01,05,14,14.70
2014,08,01,05,15,14.70
2014,08,01,05,16,14.70
2014,08,01,05,17,14.70
2014,08,01,05,18,14.70
2014,08,01,05,19,14.70
2014,08,01,05,20,14.70
2014,08,01,05,21,14.70
2014,08,01,05,22,14.70
2014,08,01,05,23,14.70
2014,08,01,05,24,14.70
2014,08,01,05,25,14.70
2014,08,01,05,26,14.70
2014,08,01,05,27,14.70
2014,08,01,05,28,14.70
2014,08,01,05,29,14.70
2014,08,01,05,30,14.70
2014,08,01,05,31,14.70
2014,08,01,05,32,14.70
2014,08,01,05,33,14.70
2014,08,01,05,34,14.70
2014,08,01,05,35,14.70
2014,08,01,05,36,14.70
2014,08,01,05,37,14.60
2014,08,01,05,38,14.60
2014,08,01,05,39,14.60
2014,08,01,05,40,14.60
2014,08,01,05,41,14.60
2014,08,01,05,42,14.50
2014,08,01,05,43,14.50
2014,08,01,05,44,14.50
2014,08,01,05,45,14.50
2014,08,01,05,46,14.50
2014,08,01,05,47,14.40
2014,08,01,05,48,14.40
2014,08,01,05,49,14.40
2014,08,01,05,50,14.30
2014,08,01,05,51,14.30
2014,08,01,05,52,14.30
2014,08,01,05,53,14.30
2014,08,01,05,54,14.30
2014,08,01,05,55,14.30
2014,08,01,05,56,14.20
2014,08,01,05,57,14.20
2014,08,01,05,58,14.20
2014,08,01,05,59,14.20
2014,08,01,06,00,14.20
2014,08,01,06,01,14.20
2014,08,01,06,02,14.20
2014,08,01,06,03,14.20
2014,08,01,06,04,14.20
2014,08,01,06,05,14.20
2014,08,01,06,06,14.20
2014,08,01,06,07,14.20
2014,08,01,06,08,14.20
2014,08,01,06,09,14.20
2014,08,01,06,10,14.20
2014,08,01,06,11,14.20
2014,08,01,06,12,14.20
2014,08,01,06,13,14.20
2014,08,01,06,14,14.20
2014,08,01,06,15,14.20
2014,08,01,06,16,14.20
2014,08,01,06,17,14.20
2014,08,01,06,18,14.20
2014,08,01,06,19,14.20
2014,08,01,06,20,14.20
2014,08,01,06,21,14.20
2014,08,01,06,22,14.20
2014,08,01,06,23,14.20
2014,08,01,06,24,14.20
2014,08,01,06,25,14.30
2014,08,01,06,26,14.30
2014,08,01,06,27,14.30
2014,08,01,06,28,14.30
2014,08,01,06,29,14.30
2014,08,01,06,30,14.40
2014,08,01,06,31,14.40
2014,08,01,06,32,14.50
2014,08,01,06,33,14.50
2014,08,01,06,34,14.50
2014,08,01,06,35,14.60
2014,08,01,06,36,14.60
2014,08,01,06,37,14.70
2014,08,01,06,38,14.70
2014,08,01,06,39,14.70
2014,08,01,06,40,14.80
2014,08,01,06,41,14.80
2014,08,01,06,42,14.80
2014,08,01,06,43,14.80
2014,08,01,06,44,14.80
2014,08,01,06,45,14.80
2014,08,01,06,46,14.80
2014,08,01,06,47,14.80
2014,08,01,06,48,14.90
2014,08,01,06,49,15.00
2014,08,01,06,50,15.00
2014,08,01,06,51,15.00
2014,08,01,06,52,15.00
2014,08,01,06,53,15.00
2014,08,01,06,54,15.10
2014,08,01,06,55,15.10
2014,08,01,06,56,15.10
2014,08,01,06,57,15.20
2014,08,01,06,58,15.30
2014,08,01,06,59,15.30
2014,08,01,07,00,15.30
2014,08,01,07,01,15.30
2014,08,01,07,02,15.30
2014,08,01,07,03,15.40
2014,08,01,07,04,15.40
2014,08,01,07,05,15.50
2014,08,01,07,06,15.60
2014,08,01,07,07,15.60
2014,08,01,07,08,15.70
2014,08,01,07,09,15.80
2014,08,01,07,10,15.90
2014,08,01,07,11,16.10
2014,08,01,07,12,16.20
2014,08,01,07,13,16.30
2014,08,01,07,14,16.40
2014,08,01,07,15,16.60
2014,08,01,07,16,16.70
2014,08,01,07,17,16.80
2014,08,01,07,18,16.90
2014,08,01,07,19,16.90
2014,08,01,07,20,17.00
2014,08,01,07,21,17.10
2014,08,01,07,22,17.20
2014,08,01,07,23,17.30
2014,08,01,07,24,17.30
2014,08,01,07,25,17.40
2014,08,01,07,26,17.50
2014,08,01,07,27,17.50
2014,08,01,07,28,17.60
2014,08,01,07,29,17.70
2014,08,01,07,30,17.70
2014,08,01,07,31,17.70
2014,08,01,07,32,17.80
2014,08,01,07,33,17.80
2014,08,01,07,34,17.90
2014,08,01,07,35,17.90
2014,08,01,07,36,18.00
2014,08,01,07,37,18.20
2014,08,01,07,38,18.20
2014,08,01,07,39,18.40
2014,08,01,07,40,18.50
2014,08,01,07,41,18.60
2014,08,01,07,42,18.70
2014,08,01,07,43,18.80
2014,08,01,07,44,18.90
2014,08,01,07,45,18.90
2014,08,01,07,46,18.90
2014,08,01,07,47,19.00
2014,08,01,07,48,19.10
2014,08,01,07,49,19.10
2014,08,01,07,50,19.10
2014,08,01,07,51,19.10
2014,08,01,07,52,19.10
2014,08,01,07,53,19.10
2014,08,01,07,54,19.10
2014,08,01,07,55,19.10
2014,08,01,07,56,19.00
2014,08,01,07,57,18.90
2014,08,01,07,58,18.90
2014,08,01,07,59,18.90
2014,08,01,08,00,18.90
2014,08,01,08,01,18.90
2014,08,01,08,02,18.90
2014,08,01,08,03,18.90
2014,08,01,08,04,18.90
2014,08,01,08,05,19.00
2014,08,01,08,06,19.10
2014,08,01,08,07,19.10
2014,08,01,08,08,19.10
2014,08,01,08,09,19.10
2014,08,01,08,10,18.90
2014,08,01,08,11,18.90
2014,08,01,08,12,18.90
2014,08,01,08,13,18.90
2014,08,01,08,14,19.00
2014,08,01,08,15,19.10
2014,08,01,08,16,19.10
2014,08,01,08,17,19.20
2014,08,01,08,18,19.30
2014,08,01,08,19,19.30
2014,08,01,08,20,19.30
2014,08,01,08,21,19.30
2014,08,01,08,22,19.30
2014,08,01,08,23,19.40
2014,08,01,08,24,19.40
2014,08,01,08,25,19.50
2014,08,01,08,26,19.60
2014,08,01,08,27,19.70
2014,08,01,08,28,19.80
2014,08,01,08,29,19.80
2014,08,01,08,30,19.90
2014,08,01,08,31,19.90
2014,08,01,08,32,19.90
2014,08,01,08,33,19.90
2014,08,01,08,34,20.00
2014,08,01,08,35,20.00
2014,08,01,08,36,20.00
2014,08,01,08,37,20.10
2014,08,01,08,38,20.10
2014,08,01,08,39,20.10
2014,08,01,08,40,20.10
2014,08,01,08,41,20.10
2014,08,01,08,42,20.10
2014,08,01,08,43,20.20
2014,08,01,08,44,20.20
2014,08,01,08,45,20.20
2014,08,01,08,46,20.20
2014,08,01,08,47,20.30
2014,08,01,08,48,20.40
2014,08,01,08,49,20.40
2014,08,01,08,50,20.40
2014,08,01,08,51,20.40
2014,08,01,08,52,20.30
2014,08,01,08,53,20.30
2014,08,01,08,54,20.30
2014,08,01,08,55,20.40
2014,08,01,08,56,20.50
2014,08,01,08,57,20.60
2014,08,01,08,58,20.60
2014,08,01,08,59,20.70
2014,08,01,09,00,20.70
2014,08,01,09,01,20.60
2014,08,01,09,02,20.60
2014,08,01,09,03,20.70
2014,08,01,09,04,20.70
2014,08,01,09,05,20.80
2014,08,01,09,06,20.80
2014,08,01,09,07,20.90
2014,08,01,09,08,21.00
2014,08,01,09,09,21.20
2014,08,01,09,10,21.30
2014,08,01,09,11,21.30
2014,08,01,09,12,21.20
2014,08,01,09,13,21.30
2014,08,01,09,14,21.30
2014,08,01,09,15,21.30
2014,08,01,09,16,21.20
2014,08,01,09,17,21.10
2014,08,01,09,18,21.10
2014,08,01,09,19,21.00
2014,08,01,09,20,21.00
2014,08,01,09,21,20.90
2014,08,01,09,22,20.90
2014,08,01,09,23,21.00
2014,08,01,09,24,21.00
2014,08,01,09,25,20.90
2014,08,01,09,26,20.90
2014,08,01,09,27,20.90
2014,08,01,09,28,20.80
2014,08,01,09,29,20.70
2014,08,01,09,30,20.60
2014,08,01,09,31,20.60
2014,08,01,09,32,20.60
2014,08,01,09,33,20.60
2014,08,01,09,34,20.60
2014,08,01,09,35,20.60
2014,08,01,09,36,20.60
2014,08,01,09,37,20.70
2014,08,01,09,38,20.80
2014,08,01,09,39,20.80
2014,08,01,09,40,20.80
2014,08,01,09,41,20.90
2014,08,01,09,42,20.90
2014,08,01,09,43,20.90
2014,08,01,09,44,20.90
2014,08,01,09,45,20.80
2014,08,01,09,46,20.80
2014,08,01,09,47,20.90
2014,08,01,09,48,20.90
2014,08,01,09,49,20.90
2014,08,01,09,50,21.00
2014,08,01,09,51,21.00
2014,08,01,09,52,21.00
2014,08,01,09,53,21.10
2014,08,01,09,54,21.10
2014,08,01,09,55,21.10
2014,08,01,09,56,21.20
2014,08,01,09,57,21.20
2014,08,01,09,58,21.30
2014,08,01,09,59,21.30
2014,08,01,10,00,21.40
2014,08,01,10,01,21.40
2014,08,01,10,02,21.50
2014,08,01,10,03,21.60
2014,08,01,10,04,21.70
2014,08,01,10,05,21.90
2014,08,01,10,06,22.00
2014,08,01,10,07,22.20
2014,08,01,10,08,22.30
2014,08,01,10,09,22.50
2014,08,01,10,10,22.60
2014,08,01,10,11,22.70
2014,08,01,10,12,22.70
2014,08,01,10,13,22.90
2014,08,01,10,14,22.90
2014,08,01,10,15,22.90
2014,08,01,10,16,22.90
2014,08,01,10,17,22.90
2014,08,01,10,18,22.90
2014,08,01,10,19,22.90
2014,08,01,10,20,23.00
2014,08,01,10,21,23.10
2014,08,01,10,22,23.20
2014,08,01,10,23,23.20
2014,08,01,10,24,23.10
2014,08,01,10,25,23.10
2014,08,01,10,26,23.10
2014,08,01,10,27,23.20
2014,08,01,10,28,23.10
2014,08,01,10,29,23.00
2014,08,01,10,30,22.90
2014,08,01,10,31,22.70
2014,08,01,10,32,22.50
2014,08,01,10,33,22.40
2014,08,01,10,34,22.30
2014,08,01,10,35,22.20
2014,08,01,10,36,22.10
2014,08,01,10,37,22.00
2014,08,01,10,38,21.90
2014,08,01,10,39,21.80
2014,08,01,10,40,21.90
2014,08,01,10,41,21.90
2014,08,01,10,42,22.00
2014,08,01,10,43,22.00
2014,08,01,10,44,22.10
2014,08,01,10,45,22.00
2014,08,01,10,46,22.00
2014,08,01,10,47,21.90
2014,08,01,10,48,21.80
2014,08,01,10,49,21.90
2014,08,01,10,50,21.90
2014,08,01,10,51,21.80
2014,08,01,10,52,21.80
2014,08,01,10,53,21.80
2014,08,01,10,54,21.80
2014,08,01,10,55,21.80
2014,08,01,10,56,21.80
2014,08,01,10,57,21.90
2014,08,01,10,58,22.00
2014,08,01,10,59,22.10
2014,08,01,11,00,22.10
2014,08,01,11,01,22.20
2014,08,01,11,02,22.30
2014,08,01,11,03,22.30
2014,08,01,11,04,22.20
2014,08,01,11,05,22.10
2014,08,01,11,06,22.00
2014,08,01,11,07,22.00
2014,08,01,11,08,22.00
2014,08,01,11,09,21.90
2014,08,01,11,10,21.70
2014,08,01,11,11,21.60
2014,08,01,11,12,21.60
2014,08,01,11,13,21.60
2014,08,01,11,14,21.60
2014,08,01,11,15,21.50
2014,08,01,11,16,21.40
2014,08,01,11,17,21.50
2014,08,01,11,18,21.50
2014,08,01,11,19,21.40
2014,08,01,11,20,21.40
2014,08,01,11,21,21.50
2014,08,01,11,22,21.50
2014,08,01,11,23,21.50
2014,08,01,11,24,21.60
2014,08,01,11,25,21.60
2014,08,01,11,26,21.60
2014,08,01,11,27,21.60
2014,08,01,11,28,21.60
2014,08,01,11,29,21.60
2014,08,01,11,30,21.70
2014,08,01,11,31,21.80
2014,08,01,11,32,21.90
2014,08,01,11,33,21.90
2014,08,01,11,34,21.90
2014,08,01,11,35,21.90
2014,08,01,11,36,21.80
2014,08,01,11,37,21.80
2014,08,01,11,38,21.80
2014,08,01,11,39,21.80
2014,08,01,11,40,21.80
2014,08,01,11,41,21.80
2014,08,01,11,42,21.70
2014,08,01,11,43,21.60
2014,08,01,11,44,21.60
2014,08,01,11,45,21.60
2014,08,01,11,46,21.60
2014,08,01,11,47,21.50
2014,08,01,11,48,21.40
2014,08,01,11,49,21.60
2014,08,01,11,50,21.60
2014,08,01,11,51,21.60
2014,08,01,11,52,21.60
2014,08,01,11,53,21.70
2014,08,01,11,54,21.60
2014,08,01,11,55,21.50
2014,08,01,11,56,21.40
2014,08,01,11,57,21.40
2014,08,01,11,58,21.40
2014,08,01,11,59,21.40
2014,08,01,12,00,21.30
2014,08,01,12,01,21.20
2014,08,01,12,02,21.20
2014,08,01,12,03,21.10
2014,08,01,12,04,21.10
2014,08,01,12,05,21.10
2014,08,01,12,06,21.10
2014,08,01,12,07,21.20
2014,08,01,12,08,21.30
2014,08,01,12,09,21.30
2014,08,01,12,10,21.50
2014,08,01,12,11,21.60
2014,08,01,12,12,21.70
2014,08,01,12,13,21.80
2014,08,01,12,14,22.00
2014,08,01,12,15,22.20
2014,08,01,12,16,22.40
2014,08,01,12,17,22.40
2014,08,01,12,18,22.40
2014,08,01,12,19,22.30
2014,08,01,12,20,22.40
2014,08,01,12,21,22.30
2014,08,01,12,22,22.30
2014,08,01,12,23,22.50
2014,08,01,12,24,22.60
2014,08,01,12,25,22.70
2014,08,01,12,26,22.70
2014,08,01,12,27,22.90
2014,08,01,12,28,23.00
2014,08,01,12,29,23.20
2014,08,01,12,30,23.30
2014,08,01,12,31,23.30
2014,08,01,12,32,23.20
2014,08,01,12,33,23.20
2014,08,01,12,34,23.20
2014,08,01,12,35,23.10
2014,08,01,12,36,23.00
2014,08,01,12,37,23.10
2014,08,01,12,38,23.30
2014,08,01,12,39,23.30
2014,08,01,12,40,23.40
2014,08,01,12,41,23.40
2014,08,01,12,42,23.40
2014,08,01,12,43,23.30
2014,08,01,12,44,23.30
2014,08,01,12,45,23.30
2014,08,01,12,46,23.30
2014,08,01,12,47,23.40
2014,08,01,12,48,23.60
2014,08,01,12,49,23.70
2014,08,01,12,50,23.70
2014,08,01,12,51,23.70
2014,08,01,12,52,23.70
2014,08,01,12,53,23.70
2014,08,01,12,54,23.70
2014,08,01,12,55,23.70
2014,08,01,12,56,23.70
2014,08,01,12,57,23.70
2014,08,01,12,58,23.70
2014,08,01,12,59,23.60
2014,08,01,13,00,23.60
2014,08,01,13,01,23.60
2014,08,01,13,02,23.60
2014,08,01,13,03,23.60
2014,08,01,13,04,23.50
2014,08,01,13,05,23.40
2014,08,01,13,06,23.30
2014,08,01,13,07,23.30
2014,08,01,13,08,23.40
2014,08,01,13,09,23.40
2014,08,01,13,10,23.40
2014,08,01,13,11,23.30
2014,08,01,13,12,23.30
2014,08,01,13,13,23.30
2014,08,01,13,14,23.40
2014,08,01,13,15,23.40
2014,08,01,13,16,23.40
2014,08,01,13,17,23.30
2014,08,01,13,18,23.40
2014,08,01,13,19,23.40
2014,08,01,13,20,23.40
2014,08,01,13,21,23.40
2014,08,01,13,22,23.40
2014,08,01,13,23,23.40
2014,08,01,13,24,23.30
2014,08,01,13,25,23.30
2014,08,01,13,26,23.30
2014,08,01,13,27,23.30
2014,08,01,13,28,23.40
2014,08,01,13,29,23.40
2014,08,01,13,30,23.40
2014,08,01,13,31,23.50
2014,08,01,13,32,23.60
2014,08,01,13,33,23.60
2014,08,01,13,34,23.50
2014,08,01,13,35,23.40
2014,08,01,13,36,23.40
2014,08,01,13,37,23.60
2014,08,01,13,38,23.70
2014,08,01,13,39,23.70
2014,08,01,13,40,23.70
2014,08,01,13,41,23.80
2014,08,01,13,42,23.90
2014,08,01,13,43,24.00
2014,08,01,13,44,24.10
2014,08,01,13,45,24.20
2014,08,01,13,46,24.30
2014,08,01,13,47,24.30
2014,08,01,13,48,24.40
2014,08,01,13,49,24.50
2014,08,01,13,50,24.50
2014,08,01,13,51,24.60
2014,08,01,13,52,24.70
2014,08,01,13,53,24.70
2014,08,01,13,54,24.70
2014,08,01,13,55,24.70
2014,08,01,13,56,24.60
2014,08,01,13,57,24.60
2014,08,01,13,58,24.60
2014,08,01,13,59,24.70
2014,08,01,14,00,24.80
2014,08,01,14,01,24.90
2014,08,01,14,02,25.00
2014,08,01,14,03,25.00
2014,08,01,14,04,24.90
2014,08,01,14,05,24.90
2014,08,01,14,06,24.90
2014,08,01,14,07,24.90
2014,08,01,14,08,24.70
2014,08,01,14,09,24.60
2014,08,01,14,10,24.60
2014,08,01,14,11,24.60
2014,08,01,14,12,24.50
2014,08,01,14,13,24.50
2014,08,01,14,14,24.50
2014,08,01,14,15,24.60
2014,08,01,14,16,24.70
2014,08,01,14,17,24.80
2014,08,01,14,18,24.90
2014,08,01,14,19,25.00
2014,08,01,14,20,25.00
2014,08,01,14,21,25.00
2014,08,01,14,22,25.10
2014,08,01,14,23,24.90
2014,08,01,14,24,24.70
2014,08,01,14,25,24.50
2014,08,01,14,26,24.40
2014,08,01,14,27,24.40
2014,08,01,14,28,24.30
2014,08,01,14,29,24.30
2014,08,01,14,30,24.30
2014,08,01,14,31,24.20
2014,08,01,14,32,24.20
2014,08,01,14,33,24.10
2014,08,01,14,34,24.10
2014,08,01,14,35,24.10
2014,08,01,14,36,23.90
2014,08,01,14,37,23.90
2014,08,01,14,38,23.90
2014,08,01,14,39,23.90
2014,08,01,14,40,23.90
2014,08,01,14,41,23.80
2014,08,01,14,42,23.80
2014,08,01,14,43,23.70
2014,08,01,14,44,23.70
2014,08,01,14,45,23.70
2014,08,01,14,46,23.70
2014,08,01,14,47,23.70
2014,08,01,14,48,23.70
2014,08,01,14,49,23.60
2014,08,01,14,50,23.50
2014,08,01,14,51,23.40
2014,08,01,14,52,23.30
2014,08,01,14,53,23.20
2014,08,01,14,54,23.10
2014,08,01,14,55,22.90
2014,08,01,14,56,22.90
2014,08,01,14,57,22.80
2014,08,01,14,58,22.80
2014,08,01,14,59,22.80
2014,08,01,15,00,22.80
2014,08,01,15,01,22.80
2014,08,01,15,02,22.90
2014,08,01,15,03,22.90
2014,08,01,15,04,22.90
2014,08,01,15,05,22.90
2014,08,01,15,06,22.70
2014,08,01,15,07,22.70
2014,08,01,15,08,22.60
2014,08,01,15,09,22.60
2014,08,01,15,10,22.50
2014,08,01,15,11,22.40
2014,08,01,15,12,22.30
2014,08,01,15,13,22.30
2014,08,01,15,14,22.30
2014,08,01,15,15,22.30
2014,08,01,15,16,22.30
2014,08,01,15,17,22.30
2014,08,01,15,18,22.30
2014,08,01,15,19,22.30
2014,08,01,15,20,22.30
2014,08,01,15,21,22.40
2014,08,01,15,22,22.40
2014,08,01,15,23,22.30
2014,08,01,15,24,22.20
2014,08,01,15,25,22.20
2014,08,01,15,26,22.20
2014,08,01,15,27,22.20
2014,08,01,15,28,22.10
2014,08,01,15,29,22.00
2014,08,01,15,30,21.80
2014,08,01,15,31,21.70
2014,08,01,15,32,21.60
2014,08,01,15,33,21.60
2014,08,01,15,34,21.80
2014,08,01,15,35,21.90
2014,08,01,15,36,22.00
2014,08,01,15,37,22.00
2014,08,01,15,38,22.10
2014,08,01,15,39,22.10
2014,08,01,15,40,22.20
2014,08,01,15,41,22.30
2014,08,01,15,42,22.30
2014,08,01,15,43,22.30
2014,08,01,15,44,22.40
2014,08,01,15,45,22.50
2014,08,01,15,46,22.60
2014,08,01,15,47,22.70
2014,08,01,15,48,22.80
2014,08,01,15,49,22.90
2014,08,01,15,50,23.00
2014,08,01,15,51,23.10
2014,08,01,15,52,23.30
2014,08,01,15,53,23.40
2014,08,01,15,54,23.60
2014,08,01,15,55,23.70
2014,08,01,15,56,23.80
2014,08,01,15,57,23.80
2014,08,01,15,58,23.90
2014,08,01,15,59,24.00
2014,08,01,16,00,24.10
2014,08,01,16,01,24.20
2014,08,01,16,02,24.40
2014,08,01,16,03,24.50
2014,08,01,16,04,24.50
2014,08,01,16,05,24.60
2014,08,01,16,06,24.60
2014,08,01,16,07,24.60
2014,08,01,16,08,24.60
2014,08,01,16,09,24.60
2014,08,01,16,10,24.60
2014,08,01,16,11,24.60
2014,08,01,16,12,24.50
2014,08,01,16,13,24.50
2014,08,01,16,14,24.40
2014,08,01,16,15,24.30
2014,08,01,16,16,24.20
2014,08,01,16,17,24.10
2014,08,01,16,18,24.10
2014,08,01,16,19,24.10
2014,08,01,16,20,24.20
2014,08,01,16,21,24.30
2014,08,01,16,22,24.40
2014,08,01,16,23,24.50
2014,08,01,16,24,24.50
2014,08,01,16,25,24.60
2014,08,01,16,26,24.70
2014,08,01,16,27,24.80
2014,08,01,16,28,24.90
2014,08,01,16,29,24.90
2014,08,01,16,30,25.00
2014,08,01,16,31,25.00
2014,08,01,16,32,25.00
2014,08,01,16,33,25.00
2014,08,01,16,34,25.00
2014,08,01,16,35,25.00
2014,08,01,16,36,24.80
2014,08,01,16,37,24.60
2014,08,01,16,38,24.50
2014,08,01,16,39,24.30
2014,08,01,16,40,24.30
2014,08,01,16,41,24.20
2014,08,01,16,42,24.10
2014,08,01,16,43,24.10
2014,08,01,16,44,24.10
2014,08,01,16,45,24.20
2014,08,01,16,46,24.20
2014,08,01,16,47,24.20
2014,08,01,16,48,24.20
2014,08,01,16,49,24.20
2014,08,01,16,50,24.20
2014,08,01,16,51,24.10
2014,08,01,16,52,24.10
2014,08,01,16,53,24.10
2014,08,01,16,54,24.00
2014,08,01,16,55,23.90
2014,08,01,16,56,23.80
2014,08,01,16,57,23.70
2014,08,01,16,58,23.70
2014,08,01,16,59,23.60
2014,08,01,17,00,23.60
2014,08,01,17,01,23.60
2014,08,01,17,02,23.50
2014,08,01,17,03,23.40
2014,08,01,17,04,23.50
2014,08,01,17,05,23.60
2014,08,01,17,06,23.60
2014,08,01,17,07,23.60
2014,08,01,17,08,23.60
2014,08,01,17,09,23.50
2014,08,01,17,10,23.40
2014,08,01,17,11,23.40
2014,08,01,17,12,23.50
2014,08,01,17,13,23.60
2014,08,01,17,14,23.60
2014,08,01,17,15,23.60
2014,08,01,17,16,23.60
2014,08,01,17,17,23.60
2014,08,01,17,18,23.60
2014,08,01,17,19,23.50